Tracking 17842 objects as of 30-August-2016
HD Live streaming from Space Station
objects crossing your sky now

ESSA 1 (OT-3)

Track ESSA 1 (OT-3) now!
10-day predictions
ESSA 1 (OT-3) is classified as:


NORAD ID: 1982
Int'l Code: 1966-008A
Perigee: 743.3 km
Apogee: 743.3 km
Inclination: 97.9 °
Period: 99.5 minutes
Semi major axis: 7114 km
RCS: 0.7257 m2 (medium)
Launch date: February 3, 1966
Source: United States (US)
Launch site: AIR FORCE EASTERN TEST RANGE (AFETR)
Your satellite tracking list
Your tracking list is empty





NASA's NSSDC Master Catalog

Two Line Element Set (TLE):
1 01982U 66008A   16243.19877142  .00000023  00000-0  17338-4 0  9996
2 01982  97.8574 111.7451 0081129 333.5834  26.1234 14.46786192661191
Source of the keplerian elements: AFSPC

N2YO: 488